This demonstration page uses our WeatherBlox Daily Observations layout. Learn more.

Left ArrowRight Arrow

41.86663, -103.66717

Hourly Observations for November 17, 2019

Temp ( °F °C ) Dew Point ( °F °C ) Humidity (%) Winds ( mph kmh ) Pressure ( in mb ) Visibility ( mi km ) Precip ( " mm )
12:53 am 00:53 Clear 29 -1.7 27 -2.8 92 92 N 3 6 30.21 1023 10 16 0.00 0.00
1:53 am 01:53 Clear 27 -2.8 26 -3.3 96 96 NW 7 11 30.22 1024 10 16 0.00 0.00
2:53 am 02:53 Clear 26 -3.3 24 -4.4 92 92 NNW 6 9 30.23 1024 10 16 0.00 0.00
3:53 am 03:53 Clear 29 -1.7 26 -3.3 89 89 NW 7 11 30.21 1023 10 16 0.00 0.00
4:53 am 04:53 Clear 25 -3.9 23 -5 92 92 NW 8 13 30.18 1022 10 16 0.00 0.00
5:53 am 05:53 Clear 25 -3.9 23 -5 92 92 NW 5 7 30.20 1023 10 16 0.00 0.00
6:53 am 06:53 Sunny 26 -3.3 23 -5 88 88 WNW 5 7 30.19 1022 10 16 0.00 0.00
7:53 am 07:53 Sunny 30 -1.1 26 -3.3 85 85 Calm 30.18 1022 10 16 0.00 0.00
8:53 am 08:53 Sunny 37 2.8 31 -0.6 79 79 NW 3 6 30.15 1021 10 16 0.00 0.00
9:53 am 09:53 Sunny 43 6.1 33 0.6 68 68 NW 5 7 30.13 1020 10 16 0.00 0.00
10:53 am 10:53 Sunny 50 10 32 0 50 50 WNW 9 15 30.08 1019 10 16 0.00 0.00
11:53 am 11:53 Sunny 52 11.1 32 0 47 47 WNW 13 20 30.04 1017 10 16 0.00 0.00
12:53 pm 12:53 Sunny 56 13.3 30 -1.1 37 37 WNW 14 22 29.99 1016 10 16 0.00 0.00
1:53 pm 13:53 Sunny 58 14.4 28 -2.2 32 32 WNW 16 26 29.96 1015 10 16 0.00 0.00
2:53 pm 14:53 Cloudy 57 13.9 29 -1.7 34 34 WNW 13 20 29.96 1015 10 16 0.00 0.00
3:53 pm 15:53 Cloudy 55 12.8 30 -1.1 38 38 WNW 6 9 29.96 1014 10 16 0.00 0.00
4:53 pm 16:53 Mostly Clear 50 10 31 -0.6 48 48 W 6 9 29.96 1015 10 16 0.00 0.00
5:53 pm 17:53 Clear 50 10 32 0 50 50 WNW 7 11 29.95 1014 10 16 0.00 0.00
6:53 pm 18:53 Cloudy with Light Rain 48 8.9 33 0.6 56 56 W 8 13 29.95 1014 10 16 0.00 0.00
7:53 pm 19:53 Mostly Cloudy 50 10 31 -0.6 48 48 WNW 10 17 29.91 1013 10 16 0.00 0.00
8:53 pm 20:53 Cloudy 52 11.1 30 -1.1 43 43 WNW 14 22 29.88 1012 10 16 0.00 0.00
9:53 pm 21:53 Cloudy 52 11.1 33 0.6 49 49 WNW 10 17 29.86 1011 10 16 0.00 0.00
10:53 pm 22:53 Cloudy 47 8.3 34 1.1 61 61 NW 7 11 29.83 1010 10 16 0.00 0.00
11:53 pm 23:53 Cloudy 48 8.9 34 1.1 58 58 NW 3 6 29.83 1010 10 16 0.00 0.00

Powered by AerisWeather